Regional Weather Roundup
Issued by NWS

Home | Current Version | Previous Version | Text Only | Print | Product List | Glossary Off
Versions: 1 2 3 4 5 6 7 8 9 10 11 12 13 14 15 16 17 18 19 20 21 22 23 24 25 26 27 28 29 30 31 32 33 34 35 36 37 38 39 40 41 42 43 44 45 46 47 48 49 50

000
ASUS45 KCYS 061410
RWRWY

WYOMING REGIONAL WEATHER ROUNDUP
NATIONAL WEATHER SERVICE CHEYENNE WY
800 AM MDT WED MAY 06 2015

NOTE:  "FAIR" INDICATES FEW OR NO CLOUDS BELOW 12,000 FEET
WITH NO SIGNIFICANT WEATHER AND/OR OBSTRUCTIONS TO VISIBILITY.

WYZ001-061500-
YELLOWSTONE NATIONAL PARK

CITY           SKY/WX    TMP DP  RH WIND       PRES   REMARKS
LK YELLOWSTONE   N/A     37  34  89 CALM      29.90S
W YELLOWSTONE  NOT AVBL

$$
WYZ002>013-054>058-071-098>099-061500-
NORTHERN WYOMING

CITY           SKY/WX    TMP DP  RH WIND       PRES   REMARKS
JACKSON        CLOUDY    39  37  93 VRB5      29.86R
CODY           CLOUDY    48  45  87 N12G17    29.81R
GREYBULL       CLOUDY    55  48  77 NW18      29.72S
WORLAND        CLOUDY    53  49  86 NW7       29.74S
SHERIDAN       CLOUDY    50  47  89 NW20      29.77R
BUFFALO        CLOUDY    49  45  86 N22G29    29.76R
GILLETTE       CLOUDY    52  46  80 W14       29.70S
HULETT         DRIZZLE   52  50  93 CALM      29.73S
NEWCASTLE      DRIZZLE   52  52 100 CALM      29.73S

$$
WYZ014>020-022>026-101>103-061500-
CENTRAL WYOMING

CITY           SKY/WX    TMP DP  RH WIND       PRES   REMARKS
BIG PINEY      PTSUNNY   47  33  58 N8        29.84R
PINEDALE       CLOUDY    45  37  76 W16G22    29.83R
DUBOIS         FAIR      45  34  65 NW10      29.82S
LANDER         LGT RAIN  50  47  89 CALM      29.77R
RIVERTON       LGT RAIN  49  46  90 N13       29.78R
CASPER         CLOUDY    50  45  83 N7        29.75R
DOUGLAS        CLOUDY    51  49  92 CALM      29.73S

$$
WYZ021-027>030-104>119-061500-
SOUTHERN WYOMING

CITY           SKY/WX    TMP DP  RH WIND       PRES   REMARKS
EVANSTON       CLOUDY    43  42  97 SW6       29.87S
KEMMERER       FAIR      43  39  87 W14       29.85S
FORT BRIDGER   CLOUDY    46  45  93 W12       29.88S
ROCK SPRINGS   CLOUDY    47  41  80 W15       29.82R
DIXON          DRIZZLE   49  45  88 SW6       29.83S
RAWLINS        CLOUDY    47  42  83 W8        29.79R
SARATOGA       CLOUDY    46  43  87 CALM      29.81R
LARAMIE        CLOUDY    43  41  93 N8        29.77S
CHEYENNE       RAIN      48  46  93 N9        29.72S FOG
TORRINGTON     LGT RAIN  52  51  97 N6        29.67F FOG
PINE BLUFFS    CLOUDY    50  50 100 N3        29.69S

$$


USA.gov is the U.S. government's official web portal to all federal, state and local government web resources and services.